[[{"header":{"parameterUnit":"m.s-1","parameterCategory":1,"la1":30.2991,"la2":30.254,"lo1":-89.0895,"lo2":-89.0444,"dy":0.0017,"dx":0.0017,"nx":28,"ny":28,"refTime":"2024-10-14T03:00:00:Z","depth":0,"parameterNumber":2,"parameterNumberName":"U-component_of_WINDS"},"data":[0,0,0,0,0,0,0,0,0,0,0,0,0,0,0,0,0,0,0,0,0,0,0,0,0,0,0,0,0,0,0,0,0,0,0,0,0,0,0,0,0,0,0,0,0,0,0,0,0,0,0,0,0,0,0,0,0,0,-1.0861,-1.0861,0,-1.0882,-1.0882,-1.0882,-1.0836,-1.0835,-1.0833,-1.0832,-1.0856,-1.0857,-1.0859,0,0,0,0,0,0,0,0,0,0,0,0,0,-1.0784,-1.0786,-1.0861,-1.0861,-1.0862,-1.0882,-1.0882,-1.0882,-1.0836,-1.0835,-1.0833,-1.0831,-1.0855,-1.0857,-1.086,0,0,0,0,0,0,0,0,0,0,0,0,0,-1.0813,-1.0787,-1.0861,-1.0841,-1.0839,-1.0882,-1.0882,-1.0882,-1.0837,-1.0835,-1.0832,-1.083,-1.0854,-1.0857,-1.086,-1.0923,0,0,-1.0869,-1.0871,0,0,0,0,0,0,0,0,-1.0811,-1.0816,-1.0844,-1.0843,-1.0841,-1.0854,-1.0864,-1.0896,-1.0837,-1.0838,-1.0832,-1.0829,-1.0857,-1.086,-1.0869,-1.0925,-1.0926,-1.087,-1.0871,-1.0873,-1.0874,0,0,0,0,0,0,0,-1.0809,-1.0815,-1.0869,-1.0844,-1.0842,-1.0832,-1.0833,-1.087,-1.086,-1.0838,-1.0834,-1.0837,-1.0856,-1.0866,-1.0869,-1.0926,-1.0869,-1.0872,-1.0874,-1.0875,-1.1036,-1.1038,0,0,0,0,0,0,-1.081,-1.0813,-1.0869,-1.087,-1.082,-1.0835,-1.0837,-1.0852,-1.0859,-1.0858,-1.0839,-1.0835,-1.0862,-1.0865,-1.0869,-1.0944,-1.0873,-1.0875,-1.0877,-1.1033,-1.1036,-1.1039,0,0,0,0,0,0,-1.0808,-1.0815,-1.0868,-1.0841,-1.0847,-1.0839,-1.0856,-1.0854,-1.0863,-1.086,-1.0859,-1.0851,-1.086,-1.0865,-1.091,-1.0945,-1.0877,-1.088,-1.103,-1.1034,-1.1037,-1.1095,0,0,0,0,0,0,-1.0806,-1.0815,-1.0838,-1.0842,-1.0848,-1.0908,-1.0858,-1.0856,-1.0869,-1.0863,-1.0871,-1.087,-1.0859,-1.0906,-1.0913,-1.0948,-1.0882,-1.1027,-1.1032,-1.1036,-1.109,-1.11,-1.1109,0,0,0,0,0,-1.0803,-1.0854,-1.0839,-1.0846,-1.0877,-1.091,-1.0914,-1.0899,-1.0872,-1.0895,-1.0893,-1.087,-1.094,-1.0911,-1.0919,-1.0955,-1.1025,-1.1031,-1.1036,-1.1086,-1.1098,-1.1108,0,0,0,0,0,0,-1.0855,-1.0854,-1.0838,-1.0891,-1.0901,-1.0902,-1.0932,-1.0912,-1.0931,-1.0925,-1.0907,-1.0909,-1.0958,-1.0961,-1.0929,-1.1017,-1.0978,-1.0985,-1.1013,-1.1025,-1.1034,-1.1032,-1.0885,0,0,0,0,0,-1.0873,-1.0899,-1.0896,-1.0943,-1.0949,-1.094,-1.0953,-1.0941,-1.0951,-1.0955,-1.0956,-1.0967,-1.0992,-1.1008,-1.1031,-1.109,-1.1091,-1.1119,-1.1128,-1.1136,-1.1142,-1.1174,-1.1186,-1.1057,-1.1057,-1.1057,0,0,-1.091,-1.0912,-1.0929,-1.0954,-1.096,-1.0988,-1.0943,-1.0975,-1.0996,-1.096,-1.1002,-1.1004,-1.1015,-1.1068,-1.1091,-1.1072,-1.1178,-1.1143,-1.1149,-1.1151,-1.1181,-1.1194,-1.1204,-1.1061,-1.106,-1.1059,0,0,-1.099,-1.0995,-1.1034,-1.1041,-1.1051,-1.1044,-1.1054,-1.1058,-1.1058,-1.11,-1.1074,-1.1099,-1.1141,-1.115,-1.1161,-1.1246,-1.1225,-1.1253,-1.1303,-1.1334,-1.1344,-1.1353,-1.1384,-1.1395,-1.126,-1.126,-1.126,0,-1.1035,-1.1075,-1.1057,-1.109,-1.1102,-1.107,-1.1111,-1.1119,-1.1136,-1.1145,-1.1123,-1.1176,-1.1181,-1.1236,-1.1256,-1.1266,-1.1277,-1.1252,-1.1344,-1.1353,-1.1361,-1.139,-1.1402,-1.1264,-1.1263,-1.1263,-1.1263,0,-1.1129,-1.1158,-1.1189,-1.1205,-1.122,-1.1257,-1.1246,-1.1264,-1.125,-1.1246,-1.129,-1.1296,-1.1318,-1.1331,-1.1318,-1.1384,-1.1371,-1.1347,-1.1308,-1.1377,-1.1404,-1.1415,-1.1269,-1.1267,-1.1266,-1.1265,0,0,-1.1243,-1.1249,-1.1261,-1.1268,-1.1277,-1.1299,-1.1335,-1.1356,-1.1372,-1.1385,-1.1415,-1.1452,-1.143,-1.1441,-1.143,-1.1457,-1.1525,-1.143,-1.143,-1.1447,-1.1598,-1.1616,-1.1629,-1.1511,-1.1513,-1.1515,-1.1597,0,-1.1323,-1.1384,-1.1369,-1.1429,-1.1456,-1.1426,-1.1457,-1.1467,-1.1464,-1.1487,-1.1484,-1.1511,-1.1479,-1.1486,-1.1512,-1.1511,-1.1555,-1.1505,-1.1539,-1.1541,-1.1537,-1.1643,-1.1662,-1.174,-1.1607,-1.1609,-1.161,0,-1.1425,-1.1441,-1.1504,-1.1508,-1.1519,-1.1547,-1.1566,-1.1588,-1.1598,-1.1594,-1.1608,-1.159,-1.1627,-1.1587,-1.1637,-1.1604,-1.1617,-1.1619,-1.1621,-1.1624,-1.158,-1.1649,-1.1764,-1.1776,-1.1627,-1.1625,-1.1624,0,-1.1502,-1.1539,-1.1582,-1.1589,-1.1595,-1.1616,-1.162,-1.1627,-1.1642,-1.1659,-1.1668,-1.1689,-1.1701,-1.1718,-1.1707,-1.168,-1.176,-1.1719,-1.1758,-1.1759,-1.1776,-1.1775,-1.1895,-1.1785,-1.1785,-1.1785,-1.1784,0,-1.1593,-1.1632,-1.1616,-1.1642,-1.1686,-1.1669,-1.1713,-1.1714,-1.1721,-1.1748,-1.1724,-1.1749,-1.1734,-1.1758,-1.175,-1.1793,-1.1799,-1.1797,-1.1795,-1.18,-1.18,-1.1808,-1.1802,-1.1788,-1.1787,-1.1786,-1.1786,0,-1.1686,-1.1677,-1.1721,-1.1723,-1.1725,-1.1757,-1.176,-1.1784,-1.178,-1.1814,-1.1821,-1.1815,-1.1842,-1.1833,-1.1863,-1.1858,-1.1913,-1.1903,-1.1909,-1.1907,-1.1946,-1.1943,-1.2076,-1.2092,-1.1972,-1.1973,-1.1974,0,-1.1744,-1.1774,-1.178,-1.1795,-1.18,-1.1826,-1.184,-1.1825,-1.1841,-1.1855,-1.1878,-1.1904,-1.1923,-1.1969,-1.1968,-1.199,-1.1981,-1.2027,-1.1985,-1.1989,-1.1982,-1.198,-1.1983,-1.2035,-1.2036,-1.2037,-1.2038,0,-1.1849,-1.1843,-1.1864,-1.1884,-1.1901,-1.1916,-1.1929,-1.1943,-1.1929,-1.1949,-1.1976,-1.1991,-1.2022,-1.2047,-1.2068,-1.2073,-1.2054,-1.2052,-1.2062,-1.2067,-1.2069,-1.2068,-1.1932,-1.2048,-1.2047,-1.2047,-1.2046,-1.2046,-1.1927,-1.1952,-1.196,-1.1984,-1.1992,-1.2005,-1.2028,-1.2027,-1.2049,-1.2072,-1.2062,-1.2094,-1.2104,-1.213,-1.2138,-1.2163,-1.2146,-1.2161,-1.2165,-1.2168,-1.2173,-1.2065,-1.2167,-1.2167,-1.2166,-1.2166,-1.2166,0,-1.203,-1.2034,-1.2056,-1.2075,-1.2094,-1.2074,-1.2087,-1.2105,-1.2133,-1.2144,-1.2163,-1.2195,-1.222,-1.2221,-1.2245,-1.2265,-1.2257,-1.2272,-1.227,-1.2271,-1.2187,-1.2176,-1.2278,-1.2278,-1.2278,-1.2278,-1.2278,-1.2278,-1.2086,-1.2128,-1.2123,-1.2168,-1.2172,-1.2202,-1.2212,-1.2224,-1.2232,-1.2269,-1.2289,-1.2289,-1.2296,-1.232,-1.2342,-1.2342,-1.2352,-1.237,-1.2367,-1.2288,-1.2277,-1.2267,-1.2256,-1.2372,-1.2373,-1.2448,-1.2449,-1.2449]},{"header":{"parameterUnit":"m.s-1","parameterCategory":1,"la1":30.2991,"la2":30.254,"lo1":-89.0895,"lo2":-89.0444,"dy":0.0017,"dx":0.0017,"nx":28,"ny":28,"refTime":"2024-10-14T03:00:00:Z","depth":0,"parameterNumber":3,"parameterNumberName":"V-component_of_WINDS"},"data":[0,0,0,0,0,0,0,0,0,0,0,0,0,0,0,0,0,0,0,0,0,0,0,0,0,0,0,0,0,0,0,0,0,0,0,0,0,0,0,0,0,0,0,0,0,0,0,0,0,0,0,0,0,0,0,0,0,0,-0.8488,-0.8488,0,-0.8464,-0.8464,-0.8463,-0.8439,-0.8438,-0.8438,-0.8438,-0.8412,-0.8412,-0.8411,0,0,0,0,0,0,0,0,0,0,0,0,0,-0.8512,-0.8511,-0.8488,-0.8488,-0.8487,-0.8464,-0.8464,-0.8463,-0.8439,-0.8438,-0.8438,-0.8437,-0.8412,-0.8412,-0.8411,0,0,0,0,0,0,0,0,0,0,0,0,0,-0.8496,-0.8511,-0.8488,-0.8472,-0.8471,-0.8464,-0.8464,-0.8463,-0.8439,-0.8438,-0.8438,-0.8437,-0.8412,-0.8412,-0.8411,-0.8418,0,0,-0.8409,-0.8409,0,0,0,0,0,0,0,0,-0.8497,-0.8495,-0.8475,-0.8473,-0.8471,-0.8454,-0.8462,-0.8448,-0.8439,-0.8451,-0.8438,-0.8437,-0.8426,-0.8424,-0.8421,-0.8417,-0.8416,-0.8409,-0.8409,-0.8409,-0.8409,0,0,0,0,0,0,0,-0.8498,-0.8496,-0.8478,-0.8475,-0.8473,-0.8466,-0.8463,-0.846,-0.8442,-0.845,-0.8448,-0.8445,-0.8425,-0.8422,-0.842,-0.8415,-0.8409,-0.8409,-0.8409,-0.8408,-0.8415,-0.8415,0,0,0,0,0,0,-0.8501,-0.8497,-0.8479,-0.8478,-0.8483,-0.8466,-0.8463,-0.846,-0.8442,-0.8438,-0.8446,-0.8444,-0.8423,-0.8421,-0.8419,-0.8426,-0.8409,-0.8408,-0.8408,-0.8414,-0.8415,-0.8415,0,0,0,0,0,0,-0.8502,-0.85,-0.848,-0.8487,-0.8484,-0.8466,-0.8463,-0.846,-0.8456,-0.8439,-0.8435,-0.8446,-0.8422,-0.842,-0.8418,-0.8425,-0.8408,-0.8408,-0.8414,-0.8414,-0.8415,-0.8439,0,0,0,0,0,0,-0.8503,-0.85,-0.8503,-0.8487,-0.8483,-0.848,-0.8463,-0.846,-0.8455,-0.8453,-0.8438,-0.8434,-0.8422,-0.8419,-0.8418,-0.8423,-0.8407,-0.8413,-0.8414,-0.8415,-0.8438,-0.844,-0.8443,0,0,0,0,0,-0.8504,-0.8511,-0.8503,-0.8501,-0.8486,-0.848,-0.8478,-0.8464,-0.8456,-0.8458,-0.8447,-0.8435,-0.8424,-0.8419,-0.8417,-0.8423,-0.8413,-0.8414,-0.8415,-0.8436,-0.844,-0.8443,0,0,0,0,0,0,-0.8528,-0.8508,-0.85,-0.8502,-0.8493,-0.8476,-0.8479,-0.8468,-0.8461,-0.8459,-0.8441,-0.8438,-0.8438,-0.843,-0.8426,-0.8428,-0.8417,-0.8417,-0.8434,-0.8437,-0.8439,-0.8441,-0.8407,0,0,0,0,0,-0.8533,-0.853,-0.8513,-0.8517,-0.8513,-0.8497,-0.8493,-0.8483,-0.8473,-0.8469,-0.8458,-0.8448,-0.8442,-0.8439,-0.8433,-0.8436,-0.8432,-0.8439,-0.8442,-0.8444,-0.8445,-0.8446,-0.8448,-0.8419,-0.8419,-0.8419,0,0,-0.8544,-0.8533,-0.8533,-0.8521,-0.8513,-0.851,-0.8494,-0.8491,-0.8489,-0.8469,-0.8466,-0.8458,-0.8446,-0.8447,-0.8446,-0.844,-0.8452,-0.8445,-0.8447,-0.8447,-0.8447,-0.845,-0.8452,-0.842,-0.842,-0.842,0,0,-0.8563,-0.8555,-0.8557,-0.8549,-0.8537,-0.8526,-0.8527,-0.8512,-0.8505,-0.8503,-0.8488,-0.8484,-0.8475,-0.8467,-0.8462,-0.8478,-0.8467,-0.8476,-0.849,-0.8492,-0.8494,-0.8496,-0.8501,-0.8504,-0.8477,-0.8477,-0.8478,0,-0.8579,-0.8574,-0.8559,-0.8558,-0.8553,-0.8535,-0.8536,-0.8529,-0.8516,-0.8513,-0.8506,-0.8494,-0.8485,-0.8483,-0.8487,-0.8484,-0.8483,-0.8478,-0.8495,-0.8497,-0.8498,-0.8503,-0.8505,-0.8479,-0.8479,-0.8478,-0.8478,0,-0.8594,-0.8591,-0.8593,-0.8581,-0.8577,-0.8577,-0.8561,-0.8559,-0.8549,-0.8539,-0.8536,-0.8524,-0.8516,-0.8514,-0.8504,-0.8512,-0.8508,-0.8498,-0.8486,-0.8503,-0.8507,-0.8509,-0.8481,-0.848,-0.848,-0.8479,0,0,-0.8627,-0.8607,-0.8608,-0.8602,-0.8588,-0.8585,-0.8584,-0.8575,-0.8573,-0.8565,-0.8563,-0.8556,-0.8547,-0.8541,-0.853,-0.8531,-0.8544,-0.8521,-0.852,-0.8525,-0.8551,-0.8558,-0.8561,-0.8536,-0.8537,-0.8537,-0.8552,0,-0.8644,-0.8641,-0.8628,-0.8629,-0.8626,-0.8609,-0.8608,-0.8599,-0.8589,-0.8585,-0.8574,-0.8569,-0.8557,-0.8554,-0.8554,-0.8543,-0.8549,-0.8541,-0.8535,-0.8535,-0.8538,-0.8563,-0.8571,-0.8586,-0.8553,-0.8554,-0.8554,0,-0.8663,-0.8656,-0.8657,-0.8642,-0.864,-0.864,-0.8631,-0.8627,-0.8616,-0.8609,-0.8603,-0.8591,-0.8588,-0.8577,-0.8573,-0.8568,-0.8565,-0.8559,-0.8559,-0.8558,-0.8545,-0.8562,-0.859,-0.8592,-0.8557,-0.8556,-0.8556,0,-0.8687,-0.8678,-0.8677,-0.8673,-0.8656,-0.8656,-0.8649,-0.8637,-0.8633,-0.8625,-0.8622,-0.8614,-0.8609,-0.8603,-0.8589,-0.8582,-0.8587,-0.8574,-0.8581,-0.8581,-0.8582,-0.8582,-0.8609,-0.858,-0.858,-0.858,-0.858,0,-0.8707,-0.8708,-0.8688,-0.8688,-0.8688,-0.8672,-0.8674,-0.8665,-0.8655,-0.8652,-0.8637,-0.8634,-0.8616,-0.8611,-0.86,-0.8599,-0.8597,-0.8591,-0.8588,-0.8592,-0.8593,-0.8589,-0.8588,-0.8581,-0.8581,-0.858,-0.858,0,-0.8734,-0.872,-0.8719,-0.8703,-0.8699,-0.87,-0.8686,-0.8685,-0.8675,-0.8672,-0.867,-0.8654,-0.8647,-0.8633,-0.8623,-0.8615,-0.8616,-0.8611,-0.862,-0.8618,-0.8625,-0.8625,-0.8651,-0.8654,-0.8623,-0.8623,-0.8624,0,-0.8748,-0.8748,-0.8733,-0.873,-0.8724,-0.8719,-0.8715,-0.8699,-0.8695,-0.8683,-0.8683,-0.8676,-0.8669,-0.866,-0.8647,-0.8639,-0.8633,-0.8643,-0.8632,-0.8636,-0.8633,-0.8633,-0.8633,-0.8646,-0.8646,-0.8646,-0.8647,0,-0.8773,-0.8766,-0.8761,-0.8753,-0.8749,-0.8742,-0.8734,-0.8732,-0.8714,-0.8711,-0.8704,-0.8699,-0.8689,-0.8682,-0.8672,-0.8664,-0.8652,-0.865,-0.8651,-0.8656,-0.8661,-0.8658,-0.8627,-0.865,-0.8649,-0.8649,-0.8649,-0.8649,-0.8794,-0.8794,-0.8783,-0.8777,-0.8769,-0.8762,-0.8761,-0.875,-0.8745,-0.8735,-0.8726,-0.8721,-0.8709,-0.8695,-0.8688,-0.8683,-0.8677,-0.8679,-0.8679,-0.868,-0.8682,-0.8662,-0.8681,-0.8681,-0.8681,-0.8681,-0.8681,0,-0.8819,-0.8811,-0.8806,-0.8795,-0.8791,-0.878,-0.8771,-0.8768,-0.8763,-0.8754,-0.8748,-0.8741,-0.8734,-0.872,-0.8712,-0.871,-0.8705,-0.8709,-0.8709,-0.8707,-0.8688,-0.8687,-0.8714,-0.8714,-0.8714,-0.8714,-0.8714,-0.8714,-0.8831,-0.883,-0.8822,-0.8817,-0.8809,-0.8804,-0.8799,-0.8792,-0.8785,-0.8778,-0.8772,-0.8763,-0.8752,-0.8743,-0.8736,-0.8732,-0.8729,-0.8735,-0.8729,-0.8711,-0.8708,-0.8705,-0.8705,-0.8735,-0.8735,-0.8749,-0.8749,-0.8749]}]]